OBJECT AF, 57195

Orbit data source: Space-Track

You're viewing an Uncataloged Satellite

Recently launched and/or uncataloged satellites may have evolving metadata. Metadata may include but not limited to: Owner, Maufacturer, Bus, Motor, and Mission.

OBJECT AF, 57195 is a satellite in SSO that was launched on Tue, 27 Jun 2023 UTC via a SOYUZ-2-1B launch vehicle from the Vostochny Cosmodrome (VOSTO). Unknown objects in Earth's orbit typically refer to objects detected orbiting the Earth but have not yet been identified or cataloged. These objects could be anything from previously untracked satellites, spent rocket stages, debris from satellite collisions, or even natural meteoroids temporarily captured by Earth's gravity.

Loading next visibility...
Identifier
57195, 2023-091AF
Orbit
SSO
Country
Flag of TBDTBD
Related business
Manufacturer
NILAKT DOSAAF
Mission
Operational Amateur Science
Bus & Motor
CUBESAT 3U, Unknown motor
Mass
5 kg wet, 5 kg dry
Launch date (UTC)
2023-06-27 (2 years ago)
Launch vehicle
SOYUZ-2-1B
Launch site
Vostochny Cosmodrome (VOSTO)
Object type
Unknown
Shape & HBR
Box, 0.1 m
Radar Cross Section
0.035 m², Medium (>0.1 m² and < 1m²)

Expand to show TLE details & history
Last TLE update: 6 hours ago

TLE from 6 hours ago
0 OBJECT AF
1 57195U 23091AF  25304.69348458  .00009016  00000-0  45764-3 0  9998
2 57195  97.5449   0.2419 0011168 177.8748 182.2535 15.17089082129348
Epoch: 2025-10-31T16:38Z
TLE epoch observation values (Epoch: 2025-10-31T16:38:37.067Z)
Latitude
Longitude
70.3532°
Altitude
525.42 km
Speed
7.596 km/s
True Right ascension
00h 00m 58s
True Declination
0° 00' 00"
Sunlit
Object was in full shadow at epoch
Visualization orbit readout
Latitude
Unknown
Longitude
Unknown
Altitude
Unknown
Speed
Unknown
Apparent Right ascension
Unknown
Apparent Declination
Unknown
Sunlit
N/A
Visualization observer readout
Local Sidereal Time
18:24:08
Azimuth
Unknown
Elevation
Unknown
Doppler factor
Unknown
Orbital elements
Apogee altitude
519.314 km
Perigee altitude
503.925 km
Semi-major axis
6,889.756 km
Eccentricity
0.00112
Inclination
97.5449°
RAAN
0.2419°
Arg. of periapsis
177.8748°
True anomaly
182.24847°
Mean anomaly
182.2535°
Eccentric anomaly
182.25099°
Mean motion
3.79522 °/min
Orbital period
94.86 mins
BSTAR
0.00045764
Loading maneuver chart data...
Computing Atmospheric mass density...
Loading historical data...
Loading historical data...
Loading historical data...
Loading historical data...
Loading historical data...
Loading historical data...
Loading historical data...

Documentation

Showing up to 5 results
|